| time (UTC) | temp F | wind direction | speed MPH | gust MPH | rain 1hr in | rain 24hr in | rain mn in | humidity % | barometer mb |
| 20260901125959 | 61 | 226 | 5.0 | 12.0 | 0.00 | 0.00 | 0.00 | 58 | 962.6 |
| 20260901125458 | 60 | 223 | 5.0 | 12.0 | 0.00 | 0.00 | 0.00 | 59 | 962.6 |
| 20260901124958 | 61 | 229 | 5.0 | 12.0 | 0.00 | 0.00 | 0.00 | 59 | 962.6 |
| 20260901124458 | 61 | 243 | 5.0 | 12.0 | 0.00 | 0.00 | 0.00 | 61 | 962.7 |
| 20260901123958 | 60 | 261 | 5.0 | 14.0 | 0.00 | 0.00 | 0.00 | 60 | 962.6 |
| 20260901123458 | 61 | 234 | 5.0 | 14.0 | 0.00 | 0.00 | 0.00 | 57 | 962.7 |
| 20260901122958 | 61 | 189 | 4.0 | 13.0 | 0.00 | 0.00 | 0.00 | 59 | 962.4 |
| 20260901122458 | 61 | 229 | 5.0 | 13.0 | 0.00 | 0.00 | 0.00 | 59 | 962.5 |
| 20260901121958 | 60 | 211 | 6.0 | 15.0 | 0.00 | 0.00 | 0.00 | 60 | 962.6 |
| 20260901121458 | 60 | 241 | 6.0 | 15.0 | 0.00 | 0.00 | 0.00 | 61 | 962.5 |
| 20260901120958 | 60 | 225 | 7.0 | 15.0 | 0.00 | 0.00 | 0.00 | 61 | 962.6 |
| 20260901120458 | 60 | 228 | 6.0 | 13.0 | 0.00 | 0.00 | 0.00 | 62 | 962.6 |
| 20260901115958 | 60 | 215 | 5.0 | 12.0 | 0.00 | 0.00 | 0.00 | 61 | 962.6 |
| 20260901115458 | 60 | 161 | 6.0 | 17.0 | 0.00 | 0.00 | 0.00 | 62 | 962.5 |
| 20260901114958 | 59 | 207 | 7.0 | 17.0 | 0.00 | 0.00 | 0.00 | 62 | 962.6 |
| 20260901114457 | 59 | 225 | 7.0 | 17.0 | 0.00 | 0.00 | 0.00 | 63 | 962.5 |
| 20260901113957 | 59 | 227 | 6.0 | 14.0 | 0.00 | 0.00 | 0.00 | 63 | 962.6 |
| 20260901113457 | 59 | 235 | 6.0 | 14.0 | 0.00 | 0.00 | 0.00 | 61 | 962.5 |
| 20260901112957 | 59 | 225 | 5.0 | 15.0 | 0.00 | 0.00 | 0.00 | 61 | 962.6 |
| 20260901112457 | 60 | 147 | 6.0 | 18.0 | 0.00 | 0.00 | 0.00 | 63 | 962.7 |
| 20260901111957 | 59 | 230 | 6.0 | 18.0 | 0.00 | 0.00 | 0.00 | 63 | 962.6 |
| 20260901111457 | 59 | 235 | 5.0 | 17.0 | 0.00 | 0.00 | 0.00 | 62 | 962.5 |
| 20260901110957 | 59 | 135 | 6.0 | 17.0 | 0.00 | 0.00 | 0.00 | 64 | 962.5 |
| 20260901110457 | 58 | 224 | 6.0 | 17.0 | 0.00 | 0.00 | 0.00 | 63 | 962.5 |
| 20260901105957 | 58 | 161 | 5.0 | 14.0 | 0.00 | 0.00 | 0.00 | 64 | 962.5 |
| 20260901105457 | 58 | 244 | 6.0 | 14.0 | 0.00 | 0.00 | 0.00 | 63 | 962.6 |
| 20260901104957 | 58 | 212 | 7.0 | 17.0 | 0.00 | 0.00 | 0.00 | 65 | 962.6 |
| 20260901104457 | 58 | 234 | 7.0 | 19.0 | 0.00 | 0.00 | 0.00 | 65 | 962.6 |
| 20260901103957 | 58 | 217 | 7.0 | 19.0 | 0.00 | 0.00 | 0.00 | 67 | 962.6 |
| 20260901103457 | 58 | 244 | 6.0 | 15.0 | 0.00 | 0.00 | 0.00 | 66 | 962.6 |
| 20260901102956 | 58 | 219 | 6.0 | 15.0 | 0.00 | 0.00 | 0.00 | 66 | 962.5 |
| 20260901102456 | 58 | 175 | 5.0 | 15.0 | 0.00 | 0.00 | 0.00 | 66 | 962.5 |
| 20260901101956 | 58 | 208 | 5.0 | 16.0 | 0.00 | 0.00 | 0.00 | 65 | 962.6 |
| 20260901101456 | 58 | 245 | 6.0 | 16.0 | 0.00 | 0.00 | 0.00 | 67 | 962.7 |
| 20260901100956 | 57 | 217 | 6.0 | 21.0 | 0.00 | 0.00 | 0.00 | 67 | 962.8 |
| 20260901100456 | 58 | 262 | 6.0 | 21.0 | 0.00 | 0.00 | 0.00 | 69 | 962.7 |
| 20260901095956 | 58 | 70 | 6.0 | 17.0 | 0.00 | 0.00 | 0.00 | 68 | 962.7 |
| 20260901095456 | 57 | 211 | 6.0 | 17.0 | 0.00 | 0.00 | 0.00 | 67 | 962.7 |
| 20260901094956 | 58 | 90 | 5.0 | 15.0 | 0.00 | 0.00 | 0.00 | 70 | 962.6 |
| 20260901094456 | 57 | 218 | 5.0 | 16.0 | 0.00 | 0.00 | 0.00 | 69 | 962.5 |
| 20260901093956 | 57 | 109 | 6.0 | 16.0 | 0.00 | 0.00 | 0.00 | 70 | 962.6 |
| 20260901093456 | 55 | 253 | 5.0 | 14.0 | 0.00 | 0.00 | 0.00 | 70 | 962.4 |
| 20260901092956 | 56 | 237 | 5.0 | 12.0 | 0.00 | 0.00 | 0.00 | 71 | 962.7 |
| 20260901092456 | 56 | 217 | 6.0 | 13.0 | 0.00 | 0.00 | 0.00 | 71 | 962.6 |
| 20260901091956 | 57 | 231 | 5.0 | 13.0 | 0.00 | 0.00 | 0.00 | 67 | 962.6 |
| 20260901091456 | 58 | 131 | 4.0 | 15.0 | 0.00 | 0.00 | 0.00 | 70 | 962.6 |
| 20260901090955 | 57 | 215 | 4.0 | 15.0 | 0.00 | 0.00 | 0.00 | 68 | 962.5 |
| 20260901090455 | 58 | 31 | 4.0 | 16.0 | 0.00 | 0.00 | 0.00 | 72 | 962.5 |
| 20260901085955 | 57 | 101 | 6.0 | 19.0 | 0.00 | 0.00 | 0.00 | 72 | 962.5 |
| 20260901085455 | 55 | 210 | 6.0 | 19.0 | 0.00 | 0.00 | 0.00 | 70 | 962.4 |
| 20260901084955 | 56 | 78 | 5.0 | 19.0 | 0.00 | 0.00 | 0.00 | 73 | 962.5 |
| 20260901084455 | 56 | 185 | 5.0 | 19.0 | 0.00 | 0.00 | 0.00 | 70 | 962.5 |
| 20260901083955 | 56 | 104 | 5.0 | 19.0 | 0.00 | 0.00 | 0.00 | 72 | 962.5 |
| 20260901083455 | 56 | 52 | 5.0 | 17.0 | 0.00 | 0.00 | 0.00 | 73 | 962.5 |
| 20260901082955 | 56 | 195 | 5.0 | 14.0 | 0.00 | 0.00 | 0.00 | 70 | 962.5 |
| 20260901082455 | 56 | 226 | 5.0 | 14.0 | 0.00 | 0.00 | 0.00 | 73 | 962.5 |
| 20260901081955 | 56 | 128 | 4.0 | 14.0 | 0.00 | 0.00 | 0.00 | 71 | 962.6 |
| 20260901081455 | 56 | 243 | 4.0 | 12.0 | 0.00 | 0.00 | 0.00 | 71 | 962.5 |
| 20260901080955 | 56 | 99 | 4.0 | 14.0 | 0.00 | 0.00 | 0.00 | 70 | 962.5 |
| 20260901080455 | 56 | 267 | 4.0 | 15.0 | 0.00 | 0.00 | 0.00 | 72 | 962.6 |
| 20260901075954 | 55 | 179 | 4.0 | 15.0 | 0.00 | 0.00 | 0.00 | 74 | 962.6 |
| 20260901075454 | 56 | 93 | 4.0 | 14.0 | 0.00 | 0.00 | 0.00 | 72 | 962.4 |
| 20260901074954 | 55 | 115 | 4.0 | 14.0 | 0.00 | 0.00 | 0.00 | 76 | 962.5 |
| 20260901074454 | 55 | 33 | 5.0 | 12.0 | 0.00 | 0.00 | 0.00 | 74 | 962.6 |
| 20260901073954 | 55 | 209 | 5.0 | 12.0 | 0.00 | 0.00 | 0.00 | 76 | 962.7 |
| 20260901073454 | 55 | 164 | 4.0 | 11.0 | 0.00 | 0.00 | 0.00 | 75 | 962.7 |
| 20260901072954 | 55 | 136 | 4.0 | 11.0 | 0.00 | 0.00 | 0.00 | 74 | 962.5 |
| 20260901072454 | 55 | 106 | 5.0 | 15.0 | 0.00 | 0.00 | 0.00 | 74 | 962.7 |
| 20260901071954 | 55 | 79 | 5.0 | 19.0 | 0.00 | 0.00 | 0.00 | 76 | 962.6 |
| 20260901071454 | 54 | 94 | 5.0 | 19.0 | 0.00 | 0.00 | 0.00 | 74 | 962.4 |
| 20260901070954 | 55 | 117 | 4.0 | 17.0 | 0.00 | 0.00 | 0.00 | 76 | 962.5 |
| 20260901070454 | 55 | 100 | 4.0 | 15.0 | 0.00 | 0.00 | 0.00 | 77 | 962.4 |
| 20260901065954 | 55 | 137 | 4.0 | 18.0 | 0.00 | 0.00 | 0.00 | 78 | 962.6 |
| 20260901065454 | 54 | 200 | 4.0 | 18.0 | 0.00 | 0.00 | 0.00 | 77 | 962.4 |
| 20260901064954 | 54 | 207 | 4.0 | 18.0 | 0.00 | 0.00 | 0.00 | 77 | 962.3 |
| 20260901064454 | 54 | 161 | 4.0 | 15.0 | 0.00 | 0.00 | 0.00 | 79 | 962.2 |
| 20260901063954 | 53 | 149 | 5.0 | 18.0 | 0.00 | 0.00 | 0.00 | 80 | 962.2 |
| 20260901063453 | 53 | 268 | 5.0 | 18.0 | 0.00 | 0.00 | 0.00 | 78 | 962.1 |
| 20260901062953 | 53 | 89 | 5.0 | 17.0 | 0.00 | 0.00 | 0.00 | 78 | 962.1 |
| 20260901062453 | 53 | 259 | 4.0 | 17.0 | 0.00 | 0.00 | 0.00 | 80 | 962.1 |
| 20260901061953 | 53 | 118 | 4.0 | 15.0 | 0.00 | 0.00 | 0.00 | 81 | 962.1 |
| 20260901061453 | 53 | 71 | 4.0 | 13.0 | 0.00 | 0.00 | 0.00 | 81 | 962.1 |
| 20260901060953 | 53 | 166 | 4.0 | 13.0 | 0.00 | 0.00 | 0.00 | 82 | 962.1 |
| 20260901060453 | 53 | 100 | 4.0 | 13.0 | 0.00 | 0.00 | 0.00 | 84 | 962.1 |
| 20260901055953 | 52 | 102 | 4.0 | 13.0 | 0.00 | 0.00 | 0.00 | 84 | 962.2 |
| 20260901055453 | 52 | 222 | 4.0 | 16.0 | 0.00 | 0.00 | 0.00 | 85 | 962.1 |
| 20260901054953 | 52 | 167 | 5.0 | 16.0 | 0.00 | 0.00 | 0.00 | 85 | 962.1 |
| 20260901054453 | 51 | 130 | 5.0 | 15.0 | 0.00 | 0.00 | 0.00 | 87 | 962.1 |
| 20260901053953 | 51 | 87 | 4.0 | 15.0 | 0.00 | 0.00 | 0.00 | 88 | 962.1 |
| 20260901053453 | 51 | 242 | 4.0 | 15.0 | 0.00 | 0.00 | 0.00 | 88 | 962.0 |
| 20260901052953 | 51 | 190 | 4.0 | 15.0 | 0.00 | 0.00 | 0.00 | 90 | 962.0 |
| 20260901052453 | 50 | 165 | 4.0 | 16.0 | 0.00 | 0.00 | 0.00 | 90 | 962.0 |
| 20260901051952 | 50 | 107 | 4.0 | 16.0 | 0.00 | 0.00 | 0.00 | 90 | 962.0 |
| 20260901051452 | 50 | 142 | 4.0 | 12.0 | 0.00 | 0.00 | 0.00 | 90 | 962.1 |
| 20260901050952 | 50 | 94 | 3.0 | 12.0 | 0.00 | 0.00 | 0.00 | 90 | 962.1 |
| 20260901050452 | 50 | 153 | 3.0 | 9.0 | 0.00 | 0.00 | 0.00 | 91 | 962.3 |
| 20260901045952 | 50 | 107 | 3.0 | 10.0 | 0.00 | 0.00 | 0.00 | 92 | 962.2 |
| 20260901045452 | 49 | 133 | 3.0 | 10.0 | 0.00 | 0.00 | 0.00 | 94 | 962.2 |
| 20260901044952 | 48 | 305 | 3.0 | 10.0 | 0.00 | 0.00 | 0.00 | 96 | 962.4 |
| 20260901044452 | 47 | 139 | 3.0 | 10.0 | 0.00 | 0.00 | 0.00 | 97 | 962.3 |
| 20260901043952 | 46 | 76 | 3.0 | 11.0 | 0.00 | 0.00 | 0.00 | 98 | 962.2 |
| 20260901043452 | 46 | 117 | 3.0 | 12.0 | 0.00 | 0.00 | 0.00 | 99 | 962.1 |
| 20260901042952 | 44 | 91 | 3.0 | 12.0 | 0.00 | 0.00 | 0.00 | 10 | 962.1 |
| 20260901042452 | 44 | 37 | 3.0 | 11.0 | 0.00 | 0.00 | 0.00 | 10 | 962.0 |
| 20260901041952 | 43 | 111 | 3.0 | 11.0 | 0.00 | 0.00 | 0.00 | 10 | 962.1 |
| 20260901041452 | 43 | 106 | 3.0 | 11.0 | 0.00 | 0.00 | 0.00 | 10 | 962.1 |
| 20260901040952 | 43 | 94 | 3.0 | 8.0 | 0.00 | 0.00 | 0.00 | 10 | 962.1 |
| 20260901040452 | 43 | 113 | 3.0 | 7.0 | 0.00 | 0.00 | 0.00 | 10 | 962.0 |
| 20260901035951 | 43 | 84 | 3.0 | 12.0 | 0.00 | 0.00 | 0.00 | 10 | 962.1 |
| 20260901035451 | 43 | 91 | 3.0 | 12.0 | 0.00 | 0.00 | 0.00 | 10 | 962.1 |
| 20260901034951 | 43 | 136 | 3.0 | 9.0 | 0.00 | 0.00 | 0.00 | 10 | 962.0 |
| 20260901034451 | 43 | 111 | 2.0 | 8.0 | 0.00 | 0.00 | 0.00 | 10 | 962.0 |
| 20260901033951 | 43 | 101 | 2.0 | 7.0 | 0.00 | 0.00 | 0.00 | 10 | 962.1 |
| 20260901033451 | 43 | 64 | 2.0 | 7.0 | 0.00 | 0.00 | 0.00 | 10 | 962.0 |
| 20260901032951 | 43 | 97 | 2.0 | 9.0 | 0.00 | 0.00 | 0.00 | 10 | 961.9 |
| 20260901032451 | 43 | 104 | 2.0 | 9.0 | 0.00 | 0.00 | 0.00 | 10 | 961.9 |
| 20260901031951 | 43 | 97 | 2.0 | 9.0 | 0.00 | 0.00 | 0.00 | 10 | 961.9 |
| 20260901031451 | 43 | 128 | 2.0 | 9.0 | 0.00 | 0.00 | 0.00 | 10 | 961.8 |
| 20260901030951 | 43 | 99 | 2.0 | 9.0 | 0.00 | 0.00 | 0.00 | 10 | 961.8 |
| 20260901030451 | 43 | 32 | 2.0 | 10.0 | 0.00 | 0.00 | 0.00 | 10 | 961.8 |
| 20260901025951 | 43 | 105 | 2.0 | 10.0 | 0.00 | 0.00 | 0.00 | 10 | 961.8 |
| 20260901025451 | 43 | 182 | 2.0 | 10.0 | 0.00 | 0.00 | 0.00 | 10 | 961.8 |
| 20260901024951 | 43 | 59 | 2.0 | 8.0 | 0.00 | 0.00 | 0.00 | 10 | 961.7 |
| 20260901024451 | 43 | 133 | 2.0 | 7.0 | 0.00 | 0.00 | 0.00 | 10 | 961.8 |
| 20260901023951 | 43 | 101 | 2.0 | 8.0 | 0.00 | 0.00 | 0.00 | 10 | 961.8 |
| 20260901023451 | 43 | 152 | 2.0 | 8.0 | 0.00 | 0.00 | 0.00 | 10 | 961.7 |
| 20260901022950 | 43 | 150 | 2.0 | 9.0 | 0.00 | 0.00 | 0.00 | 10 | 961.7 |
| 20260901022450 | 43 | 19 | 2.0 | 9.0 | 0.00 | 0.00 | 0.00 | 10 | 961.6 |
| 20260901021950 | 43 | 80 | 3.0 | 9.0 | 0.00 | 0.00 | 0.00 | 10 | 961.6 |
| 20260901021450 | 43 | 123 | 3.0 | 11.0 | 0.00 | 0.00 | 0.00 | 10 | 961.6 |
| 20260901020950 | 43 | 89 | 3.0 | 12.0 | 0.00 | 0.00 | 0.00 | 10 | 961.6 |
| 20260901020450 | 43 | 147 | 3.0 | 12.0 | 0.00 | 0.00 | 0.00 | 10 | 961.5 |
| 20260901015950 | 43 | 89 | 3.0 | 10.0 | 0.00 | 0.00 | 0.00 | 10 | 961.4 |
| 20260901015450 | 43 | 142 | 3.0 | 10.0 | 0.00 | 0.00 | 0.00 | 10 | 961.4 |
| 20260901014950 | 44 | 142 | 3.0 | 8.0 | 0.00 | 0.00 | 0.00 | 10 | 961.3 |
| 20260901014450 | 44 | 114 | 3.0 | 11.0 | 0.00 | 0.00 | 0.00 | 10 | 961.3 |
| 20260901013950 | 44 | 129 | 3.0 | 11.0 | 0.00 | 0.00 | 0.00 | 10 | 961.3 |
| 20260901013450 | 44 | 128 | 3.0 | 11.0 | 0.00 | 0.00 | 0.00 | 10 | 961.3 |
| 20260901012949 | 44 | 98 | 3.0 | 11.0 | 0.00 | 0.00 | 0.00 | 10 | 961.3 |
| 20260901012449 | 44 | 138 | 4.0 | 15.0 | 0.00 | 0.00 | 0.00 | 10 | 961.2 |
| 20260901011949 | 44 | 43 | 4.0 | 15.0 | 0.00 | 0.00 | 0.00 | 10 | 961.3 |
| 20260901011449 | 44 | 162 | 4.0 | 14.0 | 0.00 | 0.00 | 0.00 | 10 | 961.2 |
| 20260901010949 | 45 | 228 | 5.0 | 14.0 | 0.00 | 0.00 | 0.00 | 99 | 961.3 |
| 20260901010449 | 45 | 64 | 4.0 | 13.0 | 0.00 | 0.00 | 0.00 | 99 | 961.2 |
| 20260901005949 | 45 | 130 | 4.0 | 13.0 | 0.00 | 0.00 | 0.00 | 10 | 961.3 |
| 20260901005449 | 45 | 91 | 4.0 | 13.0 | 0.00 | 0.00 | 0.00 | 99 | 961.3 |
| 20260901004949 | 45 | 102 | 4.0 | 13.0 | 0.00 | 0.00 | 0.00 | 99 | 961.3 |
| 20260901004449 | 45 | 0 | 5.0 | 14.0 | 0.00 | 0.00 | 0.00 | 99 | 961.3 |
| 20260901003949 | 45 | 107 | 5.0 | 16.0 | 0.00 | 0.00 | 0.00 | 99 | 961.3 |
| 20260901003449 | 45 | 134 | 4.0 | 16.0 | 0.00 | 0.00 | 0.00 | 99 | 961.3 |
| 20260901002949 | 45 | 106 | 4.0 | 16.0 | 0.00 | 0.00 | 0.00 | 99 | 961.4 |
| 20260901002449 | 45 | 105 | 4.0 | 12.0 | 0.00 | 0.00 | 0.00 | 99 | 961.4 |
| 20260901001949 | 45 | 128 | 4.0 | 14.0 | 0.00 | 0.00 | 0.00 | 99 | 961.4 |
| 20260901001448 | 46 | 89 | 4.0 | 14.0 | 0.00 | 0.00 | 0.00 | 99 | 961.4 |
| 20260901000948 | 46 | 173 | 5.0 | 11.0 | 0.00 | 0.00 | 0.00 | 99 | 961.3 |
| 20260901000450 | 46 | 147 | 4.0 | 11.0 | 0.00 | 0.00 | 0.00 | 99 | 961.4 |
| 20260831235948 | 46 | 144 | 4.0 | 13.0 | 0.00 | 0.00 | 0.00 | 99 | 961.3 |
| 20260831235448 | 46 | 161 | 4.0 | 13.0 | 0.00 | 0.00 | 0.00 | 99 | 961.2 |
| 20260831234948 | 46 | 155 | 4.0 | 15.0 | 0.00 | 0.00 | 0.00 | 99 | 961.4 |
| 20260831234448 | 46 | 123 | 4.0 | 16.0 | 0.00 | 0.00 | 0.00 | 99 | 961.3 |
| 20260831233948 | 46 | 176 | 5.0 | 16.0 | 0.00 | 0.00 | 0.00 | 99 | 961.2 |
| 20260831233448 | 46 | 67 | 5.0 | 11.0 | 0.00 | 0.00 | 0.00 | 99 | 961.2 |
| 20260831232948 | 46 | 59 | 4.0 | 13.0 | 0.00 | 0.00 | 0.00 | 10 | 961.2 |
| 20260831232448 | 46 | 92 | 4.0 | 13.0 | 0.00 | 0.00 | 0.00 | 10 | 961.3 |
| 20260831231948 | 46 | 63 | 4.0 | 11.0 | 0.00 | 0.00 | 0.00 | 10 | 961.2 |
| 20260831231448 | 46 | 210 | 4.0 | 11.0 | 0.00 | 0.00 | 0.00 | 10 | 961.3 |
| 20260831230947 | 46 | 107 | 4.0 | 12.0 | 0.00 | 0.00 | 0.00 | 10 | 961.2 |
| 20260831230447 | 46 | 63 | 4.0 | 12.0 | 0.00 | 0.00 | 0.00 | 99 | 961.2 |
| 20260831225947 | 46 | 122 | 4.0 | 14.0 | 0.00 | 0.00 | 0.00 | 99 | 961.2 |
| 20260831225447 | 46 | 120 | 4.0 | 14.0 | 0.00 | 0.00 | 0.00 | 99 | 961.3 |
| 20260831224947 | 46 | 166 | 4.0 | 15.0 | 0.00 | 0.00 | 0.00 | 99 | 961.2 |
| 20260831224447 | 46 | 160 | 4.0 | 15.0 | 0.00 | 0.00 | 0.00 | 99 | 961.2 |
| 20260831223947 | 46 | 70 | 4.0 | 15.0 | 0.00 | 0.00 | 0.00 | 99 | 961.1 |
| 20260831223447 | 46 | 73 | 4.0 | 13.0 | 0.00 | 0.00 | 0.00 | 10 | 961.1 |
| 20260831222947 | 46 | 117 | 4.0 | 13.0 | 0.00 | 0.00 | 0.00 | 10 | 961.0 |
| 20260831222447 | 46 | 110 | 4.0 | 13.0 | 0.00 | 0.00 | 0.00 | 10 | 961.0 |
| 20260831221947 | 46 | 148 | 4.0 | 13.0 | 0.00 | 0.00 | 0.00 | 10 | 961.1 |
| 20260831221447 | 46 | 11 | 3.0 | 13.0 | 0.00 | 0.00 | 0.00 | 10 | 961.0 |
| 20260831220947 | 47 | 198 | 4.0 | 13.0 | 0.00 | 0.00 | 0.00 | 99 | 961.0 |
| 20260831220447 | 47 | 136 | 4.0 | 12.0 | 0.00 | 0.00 | 0.00 | 99 | 961.1 |
| 20260831215946 | 47 | 167 | 4.0 | 12.0 | 0.00 | 0.00 | 0.00 | 99 | 961.0 |
| 20260831215446 | 47 | 119 | 4.0 | 9.0 | 0.00 | 0.00 | 0.00 | 99 | 961.0 |
| 20260831214946 | 47 | 130 | 4.0 | 9.0 | 0.00 | 0.00 | 0.00 | 99 | 961.0 |
| 20260831214446 | 47 | 146 | 3.0 | 9.0 | 0.00 | 0.00 | 0.00 | 99 | 961.0 |
| 20260831213946 | 47 | 79 | 3.0 | 10.0 | 0.00 | 0.00 | 0.00 | 99 | 960.9 |
| 20260831213446 | 47 | 67 | 3.0 | 10.0 | 0.00 | 0.00 | 0.00 | 99 | 961.1 |
| 20260831212946 | 47 | 167 | 3.0 | 10.0 | 0.00 | 0.00 | 0.00 | 99 | 961.1 |
| 20260831212446 | 48 | 155 | 3.0 | 10.0 | 0.00 | 0.00 | 0.00 | 10 | 961.0 |
| 20260831211946 | 48 | 86 | 3.0 | 11.0 | 0.00 | 0.00 | 0.00 | 10 | 961.2 |
| 20260831211446 | 47 | 98 | 3.0 | 11.0 | 0.00 | 0.00 | 0.00 | 10 | 961.0 |
| 20260831210946 | 48 | 91 | 3.0 | 9.0 | 0.00 | 0.00 | 0.00 | 99 | 960.9 |
| 20260831210446 | 48 | 142 | 3.0 | 9.0 | 0.00 | 0.00 | 0.00 | 10 | 961.1 |
| 20260831205946 | 48 | 117 | 2.0 | 9.0 | 0.00 | 0.00 | 0.00 | 10 | 961.1 |
| 20260831205446 | 48 | 144 | 2.0 | 9.0 | 0.00 | 0.00 | 0.00 | 10 | 961.0 |
| 20260831204946 | 48 | 108 | 2.0 | 11.0 | 0.00 | 0.00 | 0.00 | 10 | 961.0 |
| 20260831204446 | 48 | 172 | 2.0 | 11.0 | 0.00 | 0.00 | 0.00 | 10 | 961.0 |
| 20260831203945 | 48 | 125 | 2.0 | 11.0 | 0.00 | 0.00 | 0.00 | 10 | 961.0 |
| 20260831203445 | 48 | 99 | 2.0 | 8.0 | 0.00 | 0.00 | 0.00 | 10 | 961.0 |
| 20260831202945 | 48 | 122 | 2.0 | 11.0 | 0.00 | 0.00 | 0.00 | 10 | 960.9 |
| 20260831202445 | 48 | 107 | 3.0 | 14.0 | 0.00 | 0.00 | 0.00 | 10 | 960.9 |
| 20260831201945 | 48 | 140 | 3.0 | 14.0 | 0.00 | 0.00 | 0.00 | 10 | 960.8 |
| 20260831201445 | 48 | 188 | 3.0 | 9.0 | 0.00 | 0.00 | 0.00 | 10 | 961.0 |
| 20260831200945 | 48 | 177 | 2.0 | 9.0 | 0.00 | 0.00 | 0.00 | 10 | 961.0 |
| 20260831200445 | 48 | 64 | 3.0 | 8.0 | 0.00 | 0.00 | 0.00 | 10 | 961.0 |
| 20260831195945 | 48 | 254 | 4.0 | 11.0 | 0.00 | 0.00 | 0.00 | 10 | 960.9 |
| 20260831195445 | 48 | 215 | 4.0 | 11.0 | 0.00 | 0.00 | 0.00 | 10 | 961.0 |
| 20260831194945 | 49 | 189 | 4.0 | 11.0 | 0.00 | 0.00 | 0.00 | 10 | 960.9 |
| 20260831194445 | 49 | 234 | 4.0 | 9.0 | 0.00 | 0.00 | 0.00 | 10 | 960.7 |
| 20260831193945 | 49 | 223 | 4.0 | 9.0 | 0.00 | 0.00 | 0.00 | 10 | 960.8 |
| 20260831193445 | 49 | 247 | 4.0 | 9.0 | 0.00 | 0.00 | 0.00 | 10 | 960.8 |
| 20260831192944 | 49 | 225 | 4.0 | 9.0 | 0.00 | 0.00 | 0.00 | 10 | 960.8 |
| 20260831192444 | 49 | 231 | 3.0 | 11.0 | 0.00 | 0.00 | 0.00 | 10 | 960.8 |
| 20260831191944 | 49 | 240 | 3.0 | 11.0 | 0.00 | 0.00 | 0.00 | 10 | 960.7 |
| 20260831191444 | 49 | 99 | 3.0 | 7.0 | 0.00 | 0.00 | 0.00 | 10 | 960.7 |
| 20260831190944 | 49 | 233 | 4.0 | 9.0 | 0.00 | 0.00 | 0.00 | 10 | 960.7 |
| 20260831190444 | 50 | 223 | 5.0 | 9.0 | 0.00 | 0.00 | 0.00 | 10 | 960.7 |
| 20260831185944 | 50 | 237 | 5.0 | 12.0 | 0.00 | 0.00 | 0.00 | 10 | 960.8 |
| 20260831185444 | 50 | 208 | 5.0 | 12.0 | 0.00 | 0.00 | 0.00 | 10 | 960.5 |
| 20260831184944 | 50 | 213 | 4.0 | 11.0 | 0.00 | 0.00 | 0.00 | 10 | 960.5 |
| 20260831184444 | 50 | 122 | 4.0 | 15.0 | 0.00 | 0.00 | 0.00 | 10 | 960.5 |
| 20260831183944 | 51 | 115 | 3.0 | 15.0 | 0.00 | 0.00 | 0.00 | 10 | 960.5 |
| 20260831183444 | 51 | 79 | 3.0 | 9.0 | 0.00 | 0.00 | 0.00 | 10 | 960.5 |
| 20260831182944 | 51 | 234 | 3.0 | 10.0 | 0.00 | 0.00 | 0.00 | 10 | 960.5 |
| 20260831182444 | 51 | 191 | 4.0 | 12.0 | 0.00 | 0.00 | 0.00 | 10 | 960.3 |
| 20260831181943 | 51 | 145 | 5.0 | 17.0 | 0.00 | 0.00 | 0.00 | 10 | 960.2 |
| 20260831181443 | 51 | 283 | 5.0 | 17.0 | 0.00 | 0.00 | 0.00 | 10 | 960.3 |
| 20260831180943 | 52 | 237 | 5.0 | 17.0 | 0.00 | 0.00 | 0.00 | 99 | 960.1 |
| 20260831180443 | 52 | 228 | 5.0 | 17.0 | 0.00 | 0.00 | 0.00 | 99 | 960.1 |
| 20260831175913 | 52 | 244 | 4.0 | 16.0 | 0.00 | 0.00 | 0.00 | 10 | 959.9 |
| 20260831175413 | 52 | 153 | 4.0 | 13.0 | 0.00 | 0.00 | 0.00 | 10 | 959.8 |
| 20260831174913 | 52 | 135 | 4.0 | 13.0 | 0.00 | 0.00 | 0.00 | 10 | 959.9 |
| 20260831174413 | 52 | 178 | 4.0 | 11.0 | 0.00 | 0.00 | 0.00 | 99 | 959.9 |
| 20260831173913 | 53 | 121 | 4.0 | 11.0 | 0.00 | 0.00 | 0.00 | 10 | 959.9 |
| 20260831173413 | 53 | 83 | 4.0 | 11.0 | 0.00 | 0.00 | 0.00 | 10 | 959.9 |
| 20260831172913 | 53 | 271 | 4.0 | 17.0 | 0.00 | 0.00 | 0.00 | 10 | 959.8 |
| 20260831172413 | 53 | 114 | 4.0 | 17.0 | 0.00 | 0.00 | 0.00 | 10 | 959.8 |
| 20260831171913 | 53 | 106 | 5.0 | 14.0 | 0.00 | 0.00 | 0.00 | 10 | 959.8 |
| 20260831171413 | 53 | 127 | 5.0 | 14.0 | 0.00 | 0.00 | 0.00 | 10 | 959.8 |
| 20260831170913 | 53 | 233 | 4.0 | 13.0 | 0.00 | 0.00 | 0.00 | 10 | 959.8 |
| 20260831170413 | 53 | 246 | 4.0 | 13.0 | 0.00 | 0.00 | 0.00 | 10 | 959.7 |
| 20260831165913 | 53 | 77 | 4.0 | 11.0 | 0.00 | 0.00 | 0.00 | 10 | 959.4 |
| 20260831165413 | 53 | 89 | 5.0 | 12.0 | 0.00 | 0.00 | 0.00 | 10 | 959.6 |
| 20260831164912 | 53 | 172 | 4.0 | 12.0 | 0.00 | 0.00 | 0.00 | 10 | 959.4 |
| 20260831164412 | 53 | 251 | 3.0 | 11.0 | 0.00 | 0.00 | 0.00 | 10 | 959.5 |
| 20260831163912 | 53 | 119 | 4.0 | 12.0 | 0.00 | 0.00 | 0.00 | 10 | 959.3 |
| 20260831163412 | 53 | 153 | 4.0 | 12.0 | 0.00 | 0.00 | 0.00 | 10 | 959.5 |
| 20260831162912 | 53 | 169 | 4.0 | 14.0 | 0.00 | 0.00 | 0.00 | 10 | 959.4 |
| 20260831162412 | 53 | 124 | 5.0 | 14.0 | 0.00 | 0.00 | 0.00 | 10 | 959.4 |
| 20260831161912 | 53 | 89 | 5.0 | 14.0 | 0.00 | 0.00 | 0.00 | 10 | 959.4 |
| 20260831161412 | 54 | 144 | 4.0 | 14.0 | 0.00 | 0.00 | 0.00 | 10 | 959.4 |
| 20260831160912 | 54 | 224 | 4.0 | 14.0 | 0.00 | 0.00 | 0.00 | 10 | 959.1 |
| 20260831160412 | 54 | 156 | 4.0 | 14.0 | 0.00 | 0.00 | 0.00 | 10 | 959.1 |
| 20260831155912 | 54 | 45 | 4.0 | 15.0 | 0.00 | 0.00 | 0.00 | 10 | 959.1 |
| 20260831155412 | 54 | 174 | 4.0 | 15.0 | 0.00 | 0.00 | 0.00 | 10 | 959.1 |
| 20260831154912 | 54 | 180 | 4.0 | 16.0 | 0.00 | 0.00 | 0.00 | 10 | 959.1 |
| 20260831154412 | 55 | 188 | 4.0 | 16.0 | 0.00 | 0.00 | 0.00 | 10 | 959.3 |
| 20260831153912 | 55 | 43 | 4.0 | 13.0 | 0.00 | 0.00 | 0.00 | 10 | 959.2 |
| 20260831153412 | 55 | 111 | 4.0 | 10.0 | 0.00 | 0.00 | 0.00 | 10 | 959.3 |
| 20260831152912 | 55 | 188 | 4.0 | 11.0 | 0.00 | 0.00 | 0.00 | 10 | 959.2 |
| 20260831152411 | 55 | 175 | 4.0 | 12.0 | 0.00 | 0.00 | 0.00 | 10 | 959.2 |
| 20260831151912 | 55 | 97 | 4.0 | 12.0 | 0.00 | 0.00 | 0.00 | 10 | 959.2 |
| 20260831151411 | 55 | 131 | 4.0 | 14.0 | 0.00 | 0.00 | 0.00 | 10 | 959.2 |
| 20260831150911 | 55 | 135 | 3.0 | 14.0 | 0.00 | 0.00 | 0.00 | 10 | 959.2 |
| 20260831150411 | 55 | 125 | 3.0 | 12.0 | 0.00 | 0.00 | 0.00 | 10 | 959.2 |
| 20260831145911 | 56 | 119 | 3.0 | 14.0 | 0.00 | 0.00 | 0.00 | 10 | 959.2 |
| 20260831145411 | 55 | 121 | 4.0 | 14.0 | 0.00 | 0.00 | 0.00 | 10 | 959.2 |
| 20260831144911 | 56 | 179 | 4.0 | 11.0 | 0.00 | 0.00 | 0.00 | 10 | 959.1 |
| 20260831144411 | 56 | 169 | 3.0 | 11.0 | 0.00 | 0.00 | 0.00 | 10 | 959.0 |
| 20260831143911 | 56 | 126 | 4.0 | 11.0 | 0.00 | 0.00 | 0.00 | 10 | 959.1 |
| 20260831143411 | 56 | 68 | 4.0 | 11.0 | 0.00 | 0.00 | 0.00 | 10 | 959.1 |
| 20260831142911 | 56 | 245 | 4.0 | 12.0 | 0.00 | 0.00 | 0.00 | 10 | 959.1 |
| 20260831142410 | 56 | 92 | 4.0 | 12.0 | 0.00 | 0.00 | 0.00 | 10 | 959.0 |
| 20260831141910 | 56 | 203 | 4.0 | 12.0 | 0.00 | 0.00 | 0.00 | 10 | 959.0 |
| 20260831141410 | 56 | 224 | 3.0 | 11.0 | 0.00 | 0.00 | 0.00 | 10 | 958.9 |
| 20260831140910 | 56 | 120 | 3.0 | 11.0 | 0.00 | 0.00 | 0.00 | 10 | 959.0 |
| 20260831140410 | 55 | 60 | 3.0 | 12.0 | 0.00 | 0.00 | 0.00 | 10 | 958.9 |
| 20260831135910 | 55 | 67 | 3.0 | 12.0 | 0.00 | 0.00 | 0.00 | 10 | 959.0 |
| 20260831135410 | 55 | 141 | 4.0 | 10.0 | 0.00 | 0.00 | 0.00 | 10 | 958.7 |
| 20260831134910 | 55 | 255 | 4.0 | 12.0 | 0.00 | 0.00 | 0.00 | 10 | 958.7 |
| 20260831134410 | 55 | 264 | 4.0 | 13.0 | 0.00 | 0.00 | 0.00 | 10 | 958.7 |
| 20260831133910 | 55 | 146 | 4.0 | 13.0 | 0.00 | 0.00 | 0.00 | 10 | 958.8 |
| 20260831133410 | 55 | 225 | 4.0 | 16.0 | 0.00 | 0.00 | 0.00 | 10 | 958.9 |
| 20260831132910 | 55 | 56 | 5.0 | 16.0 | 0.00 | 0.00 | 0.00 | 10 | 958.8 |
| 20260831132409 | 55 | 209 | 5.0 | 16.0 | 0.00 | 0.00 | 0.00 | 10 | 958.8 |
| 20260831131909 | 55 | 135 | 4.0 | 11.0 | 0.00 | 0.00 | 0.00 | 10 | 958.8 |
| 20260831131409 | 55 | 169 | 4.0 | 10.0 | 0.00 | 0.00 | 0.00 | 10 | 958.8 |
| 20260831130909 | 55 | 289 | 3.0 | 11.0 | 0.00 | 0.00 | 0.00 | 10 | 958.8 |
| 20260831130409 | 55 | 107 | 4.0 | 13.0 | 0.00 | 0.00 | 0.00 | 10 | 958.7 |